Weather History for KJAN - June, 2013

Change the Weather History Date:

Sunday, June 23, 2013

  Actual Average Record
Temperature  
Mean Temperature 81 °F 80 °F  
Max Temperature 92 °F 91 °F 101 °F (1897)
Min Temperature 69 °F 70 °F 56 °F (1992)
Degree Days  
Heating Degree Days 0 0  
Month to date heating degree days 0 0  
Since 1 June heating degree days 0 0  
Since 1 July heating degree days 2309 2391  
Cooling Degree Days 16 15  
Month to date cooling degree days 329 310  
Year to date cooling degree days 647 668  
Since 1 June cooling degree days 329 310  
Growing Degree Days 30 (Base 50)    
Moisture  
Dew Point 70 °F    
Average Humidity 72    
Maximum Humidity 97    
Minimum Humidity 47    
Precipitation  
Precipitation 0.00 in 0.14 in 2.31 in (1943)
Month to date precipitation 4.46 3.08  
Year to date precipitation 37.52 27.19  
Sea Level Pressure  
Sea Level Pressure 30.05 in    
Wind  
Wind Speed 3 mph (ESE)    
Max Wind Speed 15 mph    
Max Gust Speed 18 mph    
Visibility 9 miles    
Events      
T = Trace of Precipitation, MM = Missing Value Source: NWS Daily Summary

Daily Weather History Graph

Daily Weather History Graph

Search for Another Location

Airport or City:

Trip Planner

Search our weather history database for the weather conditions in past years. The results will help you decide how hot, cold, wet, or windy it might be!

Date:

Astronomy

Jun. 23, 2013 Rise Set
Actual Time 5:54 AM CDT 8:10 PM CDT
Civil Twilight 5:26 AM CDT 8:39 PM CDT
Nautical Twilight 4:51 AM CDT 9:13 PM CDT
Astronomical Twilight 4:13 AM CDT 9:51 PM CDT
Moon 8:28 PM CDT (6/23) 6:08 AM CDT (6/23)
Length of Visible Light 15h 13m
Length of Day
14h 16m
Full, 100% of the Moon is Illuminated
Jun 23
Full
Jun 29
Last Quarter
Jul 8
New
Jul 15
First Quarter
Jul 22
Full

Hourly Weather History & Observations

Time (CDT) Temp. Heat Index Dew Point Humidity Pressure Visibility Wind Dir Wind Speed Gust Speed Precip Events Conditions
12:54 AM 72.0 °F - 70.0 °F 93% 30.06 in 10.0 mi Calm Calm - N/A   Clear
1:54 AM 72.0 °F - 70.0 °F 93% 30.04 in 7.0 mi Calm Calm - N/A   Clear
2:54 AM 71.1 °F - 69.1 °F 93% 30.03 in 8.0 mi Calm Calm - N/A   Clear
3:54 AM 71.1 °F - 68.0 °F 90% 30.03 in 8.0 mi Calm Calm - 0.01 in   Clear
4:54 AM 70.0 °F - 68.0 °F 93% 30.04 in 5.0 mi Calm Calm - N/A   Clear
5:54 AM 69.1 °F - 68.0 °F 96% 30.05 in 5.0 mi Calm Calm - N/A   Clear
6:04 AM 69.8 °F - 68.0 °F 94% 30.07 in 2.0 mi Calm Calm - N/A   Clear
6:13 AM 69.8 °F - 68.0 °F 94% 30.07 in 6.0 mi Calm Calm - N/A   Clear
6:54 AM 72.0 °F - 70.0 °F 93% 30.06 in 5.0 mi Calm Calm - N/A   Clear
7:54 AM 75.9 °F - 71.1 °F 85% 30.07 in 8.0 mi Calm Calm - N/A   Clear
8:54 AM 79.0 °F - 71.1 °F 77% 30.09 in 10.0 mi South 3.5 mph - N/A   Clear
9:54 AM 84.0 °F 89.0 °F 71.1 °F 65% 30.09 in 10.0 mi Calm Calm - N/A   Clear
10:54 AM 86.0 °F 90.1 °F 69.1 °F 57% 30.10 in 10.0 mi Calm Calm - N/A   Clear
11:54 AM 88.0 °F 92.9 °F 70.0 °F 55% 30.09 in 10.0 mi Variable 4.6 mph - N/A   Partly Cloudy
12:54 PM 88.0 °F 92.1 °F 69.1 °F 53% 30.07 in 10.0 mi Calm Calm - N/A   Partly Cloudy
1:54 PM 89.1 °F 92.9 °F 68.0 °F 50% 30.05 in 10.0 mi NNE 3.5 mph - N/A   Scattered Clouds
2:54 PM 89.1 °F 92.1 °F 66.9 °F 48% 30.03 in 10.0 mi ENE 3.5 mph - N/A   Mostly Cloudy
3:54 PM 91.9 °F 96.9 °F 69.1 °F 47% 30.02 in 10.0 mi East 5.8 mph - N/A   Partly Cloudy
4:54 PM 90.0 °F 94.5 °F 69.1 °F 50% 30.02 in 10.0 mi ENE 4.6 mph - N/A   Mostly Cloudy
5:54 PM 88.0 °F 91.4 °F 68.0 °F 51% 30.01 in 10.0 mi SSE 5.8 mph - N/A   Scattered Clouds
6:54 PM 88.0 °F 93.8 °F 71.1 °F 57% 30.01 in 10.0 mi ESE 3.5 mph - N/A   Partly Cloudy
7:54 PM 82.9 °F 88.8 °F 73.0 °F 72% 30.01 in 10.0 mi East 4.6 mph - N/A   Partly Cloudy
8:54 PM 81.0 °F 85.2 °F 72.0 °F 74% 30.03 in 10.0 mi SE 8.1 mph - N/A   Clear
9:54 PM 79.0 °F - 70.0 °F 74% 30.06 in 10.0 mi SSE 10.4 mph - N/A   Partly Cloudy
10:54 PM 77.0 °F - 69.1 °F 76% 30.08 in 10.0 mi SSE 6.9 mph - N/A   Scattered Clouds
11:54 PM 75.0 °F - 69.1 °F 82% 30.08 in 10.0 mi SSE 4.6 mph - N/A   Clear